User: anonymous   Login
Location: Curicchi
(45.0167°N, 12.0500°E)
Time: 12:15:46
(UTC+00:00)
Language:

NPP - Orbit

View from above orbital plane
View from above orbital plane
View from above satellite
View from above satellite

Ground track
Ground track

The orbit data is extracted from the following two-line orbital elements,

1 37849U 11061A   20226.84804704 -.00000009 +00000-0 +16360-4 0  9997
2 37849 098.7378 164.0067 0001587 085.8094 338.3209 14.19541398455775
Epoch (UTC): 13 August 2020 20:21:11
Eccentricity: 0.0001587
inclination: 98.7378°
perigee height: 826 km
apogee height: 828 km
right ascension of ascending node: 164.0067°
argument of perigee: 85.8094°
revolutions per day: 14.19541398
mean anomaly at epoch: 338.3209°
orbit number at epoch: 45577

The dashed part of the orbit path shows where the satellite is in the earth's shadow,  

DLR